Location: Bridalveil Moraine
(37.7171°N, 119.6568°W)
Time: 20:30:41
(UTC+00:00)

ISS - Visible Passes

Search period start: 19 January 2026 00:00
Search period end: 29 January 2026 00:00
Orbit: 413 x 424 km, 51.6° (Epoch: 19 January)

Date Brightness Start Highest point End Pass type
(mag) Time Alt. Az. Time Alt. Az. Time Alt. Az.
24 Jan -0.9 03:04:11 10° NNW 03:04:15 10° NNW 03:04:15 10° NNW visible
25 Jan -1.5 02:16:45 10° N 02:18:04 12° NNE 02:18:26 12° NNE visible
26 Jan -1.6 03:04:25 10° NNW 03:05:38 18° NNW 03:05:38 18° NNW visible
27 Jan -2.2 02:16:40 10° NNW 02:19:17 21° NNE 02:19:59 19° NE visible
28 Jan -3.1 03:04:53 10° NW 03:07:27 50° NW 03:07:27 50° NW visible
